Location: Wien
(48.2082°N, 16.3738°E)
Time: 19:43:47
(UTC+02:00)

NOAA 19 - Pass Details

Date: 30 April 2024
Orbit: 839 x 859 km, 99.0° (Epoch: 28 May)

Event Time Altitude Azimuth Distance (km) Brightness Sun altitude
Exits shadow 22:44:05 - 214° (SW) 2,837 7.7 -20.6°
Reaches altitude 10° 22:45:24 10° 223° (SW) 2,455 7.5 -20.7°
Maximum altitude 22:49:19 20° 269° (W) 1,852 7.3 -21.1°
Drops below altitude 10° 22:53:15 10° 316° (NW) 2,465 8.7 -21.4°
Sets 22:56:18 0° 333° (NNW) 3,405 9.9 -21.7°
